TimeMDT,TemperatureF,Dew PointF,Humidity,Sea Level PressureIn,VisibilityMPH,Wind Direction,Wind SpeedMPH,Gust SpeedMPH,PrecipitationIn,Events,Conditions,WindDirDegrees,DateUTC
12:15 AM,46.4,21.2,37,30.35,10.0,SE,6.9,-,N/A,,Clear,130,2013-06-02 06:15:00
12:35 AM,46.4,21.2,37,30.35,10.0,SE,6.9,-,N/A,,Clear,130,2013-06-02 06:35:00
12:55 AM,46.4,21.2,37,30.35,10.0,SE,5.8,-,N/A,,Clear,130,2013-06-02 06:55:00
1:15 AM,44.6,21.2,39,30.35,10.0,ESE,4.6,-,N/A,,Clear,110,2013-06-02 07:15:00
1:35 AM,44.6,21.2,39,30.34,10.0,ESE,5.8,-,N/A,,Clear,110,2013-06-02 07:35:00
1:55 AM,44.6,21.2,39,30.33,10.0,SE,5.8,-,N/A,,Clear,130,2013-06-02 07:55:00
2:15 AM,42.8,21.2,42,30.33,10.0,ESE,5.8,-,N/A,,Clear,120,2013-06-02 08:15:00
2:35 AM,42.8,21.2,42,30.33,10.0,SE,6.9,-,N/A,,Clear,140,2013-06-02 08:35:00
2:55 AM,42.8,21.2,42,30.32,10.0,SE,9.2,-,N/A,,Clear,130,2013-06-02 08:55:00
3:15 AM,42.8,21.2,42,30.32,10.0,East,3.5,-,N/A,,Clear,100,2013-06-02 09:15:00
3:35 AM,42.8,21.2,42,30.32,10.0,SE,6.9,-,N/A,,Clear,130,2013-06-02 09:35:00
3:55 AM,42.8,21.2,42,30.32,10.0,SE,5.8,-,N/A,,Clear,140,2013-06-02 09:55:00
4:15 AM,42.8,21.2,42,30.32,10.0,ESE,5.8,-,N/A,,Clear,120,2013-06-02 10:15:00
4:35 AM,42.8,19.4,39,30.32,10.0,ESE,8.1,-,N/A,,Clear,120,2013-06-02 10:35:00
4:55 AM,42.8,19.4,39,30.32,10.0,SE,8.1,-,N/A,,Clear,130,2013-06-02 10:55:00
5:15 AM,42.8,19.4,39,30.32,10.0,ESE,4.6,-,N/A,,Clear,120,2013-06-02 11:15:00
5:35 AM,42.8,17.6,36,30.32,10.0,East,5.8,-,N/A,,Clear,100,2013-06-02 11:35:00
5:55 AM,42.8,17.6,36,30.32,10.0,ESE,8.1,-,N/A,,Clear,120,2013-06-02 11:55:00
6:15 AM,42.8,15.8,34,30.32,10.0,ESE,10.4,-,N/A,,Clear,120,2013-06-02 12:15:00
6:35 AM,42.8,15.8,34,30.32,10.0,ESE,5.8,-,N/A,,Clear,120,2013-06-02 12:35:00
6:55 AM,44.6,17.6,34,30.33,10.0,ESE,4.6,-,N/A,,Clear,120,2013-06-02 12:55:00
7:15 AM,46.4,15.8,29,30.33,10.0,ESE,4.6,-,N/A,,Clear,120,2013-06-02 13:15:00
7:35 AM,50.0,15.8,26,30.33,10.0,ESE,6.9,-,N/A,,Clear,110,2013-06-02 13:35:00
7:55 AM,51.8,15.8,24,30.33,10.0,East,3.5,-,N/A,,Clear,100,2013-06-02 13:55:00
8:15 AM,53.6,17.6,24,30.32,10.0,Calm,Calm,-,N/A,,Clear,0,2013-06-02 14:15:00
8:35 AM,57.2,14.0,18,30.32,10.0,Calm,Calm,-,N/A,,Clear,0,2013-06-02 14:35:00
8:55 AM,60.8,12.2,15,30.32,10.0,Calm,Calm,-,N/A,,Clear,0,2013-06-02 14:55:00
9:15 AM,60.8,12.2,15,30.32,10.0,Calm,Calm,-,N/A,,Clear,0,2013-06-02 15:15:00
9:35 AM,62.6,14.0,15,30.31,10.0,Calm,Calm,-,N/A,,Clear,0,2013-06-02 15:35:00
9:55 AM,62.6,14.0,15,30.30,10.0,East,4.6,-,N/A,,Clear,100,2013-06-02 15:55:00
10:15 AM,64.4,10.4,12,30.30,10.0,SW,5.8,-,N/A,,Clear,220,2013-06-02 16:15:00
10:35 AM,64.4,8.6,11,30.30,10.0,South,5.8,-,N/A,,Clear,180,2013-06-02 16:35:00
10:55 AM,64.4,10.4,12,30.29,10.0,South,4.6,-,N/A,,Clear,180,2013-06-02 16:55:00
11:15 AM,66.2,12.2,12,30.29,10.0,West,4.6,-,N/A,,Clear,270,2013-06-02 17:15:00
11:35 AM,68.0,10.4,11,30.28,10.0,SSW,3.5,-,N/A,,Clear,210,2013-06-02 17:35:00
11:55 AM,68.0,12.2,12,30.27,10.0,NNW,8.1,-,N/A,,Clear,340,2013-06-02 17:55:00
12:15 PM,69.8,12.2,11,30.27,10.0,WSW,11.5,18.4,N/A,,Clear,240,2013-06-02 18:15:00
12:35 PM,68.0,12.2,12,30.27,10.0,SW,11.5,21.9,N/A,,Clear,220,2013-06-02 18:35:00
12:55 PM,68.0,14.0,12,30.26,10.0,WSW,15.0,21.9,N/A,,Clear,250,2013-06-02 18:55:00
1:15 PM,68.0,14.0,12,30.26,10.0,WSW,11.5,18.4,N/A,,Clear,240,2013-06-02 19:15:00
1:35 PM,69.8,15.8,13,30.26,10.0,WSW,9.2,19.6,N/A,,Clear,250,2013-06-02 19:35:00
1:55 PM,68.0,15.8,13,30.25,10.0,West,11.5,26.5,N/A,,Scattered Clouds,270,2013-06-02 19:55:00
2:15 PM,68.0,17.6,15,30.25,10.0,West,13.8,25.3,N/A,,Scattered Clouds,260,2013-06-02 20:15:00
2:35 PM,68.0,17.6,15,30.24,10.0,West,17.3,24.2,N/A,,Mostly Cloudy,260,2013-06-02 20:35:00
2:55 PM,68.0,19.4,16,30.23,10.0,WSW,16.1,26.5,N/A,,Scattered Clouds,240,2013-06-02 20:55:00
3:15 PM,69.8,21.2,16,30.23,10.0,West,10.4,23.0,N/A,,Scattered Clouds,280,2013-06-02 21:15:00
3:35 PM,69.8,21.2,16,30.22,10.0,WSW,8.1,19.6,N/A,,Scattered Clouds,240,2013-06-02 21:35:00
3:55 PM,68.0,19.4,16,30.21,10.0,SW,16.1,23.0,N/A,,Scattered Clouds,230,2013-06-02 21:55:00
4:15 PM,69.8,21.2,16,30.22,10.0,West,17.3,24.2,N/A,,Scattered Clouds,270,2013-06-02 22:15:00
4:35 PM,64.4,23.0,21,30.22,10.0,South,24.2,36.8,N/A,,Scattered Clouds,190,2013-06-02 22:35:00
4:55 PM,64.4,23.0,21,30.22,10.0,SW,3.5,-,N/A,,Scattered Clouds,220,2013-06-02 22:55:00
5:15 PM,68.0,23.0,18,30.22,10.0,SW,8.1,-,N/A,,Clear,220,2013-06-02 23:15:00
5:35 PM,66.2,21.2,18,30.21,10.0,SSW,13.8,32.2,N/A,,Scattered Clouds,200,2013-06-02 23:35:00
5:55 PM,68.0,19.4,16,30.20,10.0,SSW,9.2,18.4,N/A,,Scattered Clouds,200,2013-06-02 23:55:00
6:15 PM,66.2,17.6,15,30.19,10.0,South,9.2,19.6,N/A,,Clear,190,2013-06-03 00:15:00
6:35 PM,66.2,19.4,17,30.18,10.0,SW,8.1,-,N/A,,Clear,220,2013-06-03 00:35:00
6:55 PM,68.0,19.4,16,30.18,10.0,West,11.5,-,N/A,,Scattered Clouds,270,2013-06-03 00:55:00
7:15 PM,68.0,17.6,15,30.18,10.0,SW,5.8,16.1,N/A,,Clear,230,2013-06-03 01:15:00
7:35 PM,66.2,17.6,15,30.18,10.0,SSW,9.2,-,N/A,,Clear,200,2013-06-03 01:35:00
7:55 PM,66.2,17.6,15,30.18,10.0,SSW,6.9,-,N/A,,Scattered Clouds,210,2013-06-03 01:55:00
8:15 PM,66.2,17.6,15,30.18,10.0,SSW,9.2,16.1,N/A,,Mostly Cloudy,210,2013-06-03 02:15:00
8:35 PM,64.4,17.6,16,30.19,10.0,SW,6.9,-,N/A,,Scattered Clouds,220,2013-06-03 02:35:00
8:55 PM,64.4,17.6,16,30.19,10.0,Calm,Calm,-,N/A,,Clear,0,2013-06-03 02:55:00
9:15 PM,60.8,21.2,22,30.19,10.0,Calm,Calm,-,N/A,,Clear,0,2013-06-03 03:15:00
9:35 PM,59.0,21.2,23,30.20,10.0,Calm,Calm,-,N/A,,Clear,0,2013-06-03 03:35:00
9:55 PM,60.8,21.2,22,30.20,10.0,SE,3.5,-,N/A,,Clear,130,2013-06-03 03:55:00
10:15 PM,59.0,23.0,25,30.21,10.0,ESE,6.9,-,N/A,,Clear,120,2013-06-03 04:15:00
10:35 PM,55.4,23.0,29,30.21,10.0,ENE,3.5,-,N/A,,Clear,70,2013-06-03 04:35:00
10:55 PM,55.4,21.2,26,30.21,10.0,East,3.5,-,N/A,,Clear,90,2013-06-03 04:55:00
11:15 PM,55.4,23.0,29,30.20,10.0,ESE,6.9,-,N/A,,Clear,120,2013-06-03 05:15:00
11:35 PM,55.4,23.0,29,30.20,10.0,ESE,6.9,-,N/A,,Scattered Clouds,110,2013-06-03 05:35:00
11:55 PM,55.4,23.0,29,30.20,10.0,SE,4.6,-,N/A,,Scattered Clouds,130,2013-06-03 05:55:00